Weather in Placencia

Belize     16°31′08″N   88°22′09″W
temp.,
°C
wind,
m/s
gust,
m/s
humid.,
%
clouds,
%
prec.,
mm/h
press.,
hPa
HPBL,
m
25 february, thu
thu2500:00+26ne910783 1.6 1018933
03:00+26ne89780 0.1 10151001
06:00+26ne9107916 0.4 1017987
09:00+27ne910790 0.4 1018863
12:00+27ne910781 1.0 1017923
15:00+26ne89770 0.3 10151000
18:00+26ne89790 0.8 1015968
21:00+26ne89780 0.4 1017931
26 february, fri
fri2600:00+26ne77790 0.6 1016876
03:00+25nne55811 0.2 1014675
06:00+25nne56811 0.8 1014594
09:00+25n458111 1.0 1016323
12:00+27nne237023 1.6 1015624
15:00+26ne67760 0.0 1011601
18:00+26ene78760 0.0 10121035
21:00+27ene79770 0.2 10141039
27 february, sat
sat2700:00+27e910792 0.8 10141022
03:00+27e1012774 0.8 10131089
06:00+26e1012773 0.9 10131162
09:00+26ese911767 0.2 10151180
12:00+27e8107217 0.2 10141171
15:00+27ene79720 0.0 10111079
18:00+27ene79750 0.0 10121001
21:00+27ene810800 0.1 10141075
28 february, sun
sun2800:00+27e1012800 0.5 10141013
03:00+27e1113790 0.1 10131017
06:00+27e911784 0.2 10141009
09:00+27ese79772 0.1 1015902
12:00+27e687720 0.1 1014900
15:00+27ene810784 0.1 10111003
18:00+27e10128023 0.4 1012999
21:00+27e1014800 0.3 1013957
1 march, mon
mon100:00+27e1114800 0.5 1013951
03:00+27e710790 0.2 10121012
06:00+27e79790 0.2 1013896
09:00+27ese68770 0.0 1015847
12:00+26e57760 0.0 1013795
15:00+27ene79770 0.0 10111007
18:00+27ene810790 0.4 10121019
21:00+27ene810790 0.9 10141025